Showing default

DEORBITSAIL, 40719

Orbit data source: Space-Track

DEORBITSAIL, 40719 is a payload satellite owned by Surrey Space Ctr (UK) in SSO that was launched on Fri, 10 Jul 2015 UTC via a PSLV-XL launch vehicle from the Sirharikota (SRI). Payload-class satellites include a variety of spacecraft equipped with specific instruments for various scientific and technological missions. These include communications satellites like Starlink; space stations such as the ISS; scientific satellites like the Hubble; Earth observation satellites from companies like Planet Labs, Umbra, and HawkEye 360; GPS; miniature CubeSats for education and research; and military/defense satellites.

Loading next visibility...
Identifier
40719, 2015-032E
Orbit
SSO
Country
Flag of UKUK
Related business
Manufacturer
Surrey Space Ctr
Mission
Non-operational Amateur Technology
Bus & Motor
CUBESAT 3U, Unknown motor
Mass
7 kg wet, 7 kg dry
Launch date (UTC)
2015-07-10 (11 years ago)
Launch vehicle
PSLV-XL
Launch site
Sirharikota (SRI)
Object type
Payload
Rocket body
Debris
Shape & HBR
Box + 1 Sail, 3.5 m
Radar Cross Section
0.039 m², Medium (>0.1 m² and < 1m²)

Expand to show TLE details & history
Last TLE update: 2 days ago

TLE from 2 days ago
0 DEORBITSAIL
1 40719U 15032E   26171.35115337  .00006840  00000-0  49992-3 0  9991
2 40719  97.5890  28.1176 0012015 220.2626 139.7711 15.03893694591726
Epoch: 2026-06-20T08:25Z
TLE epoch observation values (Epoch: 2026-06-20T08:25:39.651Z)
Latitude
-0.00001°
Longitude
-6.86464°
Altitude
564.332 km
Speed
7.576 km/s
True Right ascension
01h 52m 28s
True Declination
0° 00' 00"
Sunlit
Object was in daylight at epoch
Visualization orbit readout
Latitude
Unknown
Longitude
Unknown
Altitude
Unknown
Speed
Unknown
Apparent Right ascension
Unknown
Apparent Declination
Unknown
Sunlit
N/A
Visualization observer readout
Local Sidereal Time
23:27:18
Azimuth
Unknown
Elevation
Unknown
Doppler factor
Unknown
Orbital elements
Apogee altitude
560.225 km
Perigee altitude
543.572 km
Semi-major axis
6,930.036 km
Eccentricity
0.0012
Inclination
97.589°
RAAN
28.1176°
Arg. of periapsis
220.2626°
True anomaly
139.85992°
Mean anomaly
139.7711°
Eccentric anomaly
139.81552°
Mean motion
3.76218 °/min
Orbital period
95.69 mins
BSTAR
0.00049992
Loading maneuver chart data...
Computing Atmospheric mass density...
Loading historical data...
Loading historical data...
Loading historical data...
Loading historical data...
Loading historical data...
Loading historical data...
Loading historical data...
Other satellites on launch #32 in the year 2015 (2015-07-10 UTC)

Documentation

Showing up to 5 results
|